Year,Month,Day,Hour,Minute,Value (Times are PST for windgust in km/hr)
2020,02,01,00,00,24.20
2020,02,01,00,01,24.20
2020,02,01,00,02,22.50
2020,02,01,00,03,33.80
2020,02,01,00,04,29.00
2020,02,01,00,05,30.60
2020,02,01,00,06,38.60
2020,02,01,00,07,29.00
2020,02,01,00,08,33.80
2020,02,01,00,09,25.70
2020,02,01,00,10,32.20
2020,02,01,00,11,29.00
2020,02,01,00,12,33.80
2020,02,01,00,13,27.40
2020,02,01,00,14,29.00
2020,02,01,00,15,32.20
2020,02,01,00,16,16.10
2020,02,01,00,17,19.30
2020,02,01,00,18,19.30
2020,02,01,00,19,25.70
2020,02,01,00,20,20.90
2020,02,01,00,21,16.10
2020,02,01,00,22,33.80
2020,02,01,00,23,38.60
2020,02,01,00,24,35.40
2020,02,01,00,25,22.50
2020,02,01,00,26,22.50
2020,02,01,00,27,32.20
2020,02,01,00,28,38.60
2020,02,01,00,29,27.40
2020,02,01,00,30,30.60
2020,02,01,00,31,22.50
2020,02,01,00,32,19.30
2020,02,01,00,33,24.20
2020,02,01,00,34,30.60
2020,02,01,00,35,35.40
2020,02,01,00,36,25.70
2020,02,01,00,37,43.50
2020,02,01,00,38,37.00
2020,02,01,00,39,32.20
2020,02,01,00,40,35.40
2020,02,01,00,41,41.80
2020,02,01,00,42,33.80
2020,02,01,00,43,51.50
2020,02,01,00,44,20.90
2020,02,01,00,45,20.90
2020,02,01,00,46,20.90
2020,02,01,00,47,20.90
2020,02,01,00,48,20.90
2020,02,01,00,49,25.70
2020,02,01,00,50,33.80
2020,02,01,00,51,56.30
2020,02,01,00,52,43.50
2020,02,01,00,53,33.80
2020,02,01,00,54,38.60
2020,02,01,00,55,59.50
2020,02,01,00,56,41.80
2020,02,01,00,57,43.50
2020,02,01,00,58,25.70
2020,02,01,00,59,30.60
2020,02,01,01,00,30.60
2020,02,01,01,01,33.80
2020,02,01,01,02,32.20
2020,02,01,01,03,29.00
2020,02,01,01,04,30.60
2020,02,01,01,05,43.50
2020,02,01,01,06,27.40
2020,02,01,01,07,30.60
2020,02,01,01,08,25.70
2020,02,01,01,09,24.20
2020,02,01,01,10,41.80
2020,02,01,01,11,40.20
2020,02,01,01,12,29.00
2020,02,01,01,13,33.80
2020,02,01,01,14,30.60
2020,02,01,01,15,43.50
2020,02,01,01,16,43.50
2020,02,01,01,17,33.80
2020,02,01,01,18,38.60
2020,02,01,01,19,32.20
2020,02,01,01,20,45.10
2020,02,01,01,21,25.70
2020,02,01,01,22,40.20
2020,02,01,01,23,48.30
2020,02,01,01,24,43.50
2020,02,01,01,25,54.70
2020,02,01,01,26,49.90
2020,02,01,01,27,54.70
2020,02,01,01,28,51.50
2020,02,01,01,29,43.50
2020,02,01,01,30,45.10
2020,02,01,01,31,61.20
2020,02,01,01,32,41.80
2020,02,01,01,33,51.50
2020,02,01,01,34,43.50
2020,02,01,01,35,37.00
2020,02,01,01,36,27.40
2020,02,01,01,37,33.80
2020,02,01,01,38,33.80
2020,02,01,01,39,30.60
2020,02,01,01,40,53.10
2020,02,01,01,41,53.10
2020,02,01,01,42,53.10
2020,02,01,01,43,53.10
2020,02,01,01,44,53.10
2020,02,01,01,45,48.30
2020,02,01,01,46,53.10
2020,02,01,01,47,54.70
2020,02,01,01,48,45.10
2020,02,01,01,49,49.90
2020,02,01,01,50,49.90
2020,02,01,01,51,45.10
2020,02,01,01,52,51.50
2020,02,01,01,53,33.80
2020,02,01,01,54,49.90
2020,02,01,01,55,45.10
2020,02,01,01,56,67.60
2020,02,01,01,57,48.30
2020,02,01,01,58,45.10
2020,02,01,01,59,43.50
2020,02,01,02,00,53.10
2020,02,01,02,01,40.20
2020,02,01,02,02,38.60
2020,02,01,02,03,51.50
2020,02,01,02,04,46.70
2020,02,01,02,05,46.70
2020,02,01,02,06,40.20
2020,02,01,02,07,37.00
2020,02,01,02,08,41.80
2020,02,01,02,09,61.20
2020,02,01,02,10,46.70
2020,02,01,02,11,49.90
2020,02,01,02,12,35.40
2020,02,01,02,13,33.80
2020,02,01,02,14,40.20
2020,02,01,02,15,35.40
2020,02,01,02,16,37.00
2020,02,01,02,17,32.20
2020,02,01,02,18,54.70
2020,02,01,02,19,32.20
2020,02,01,02,20,41.80
2020,02,01,02,21,27.40
2020,02,01,02,22,33.80
2020,02,01,02,23,35.40
2020,02,01,02,24,41.80
2020,02,01,02,25,38.60
2020,02,01,02,26,38.60
2020,02,01,02,27,20.90
2020,02,01,02,28,40.20
2020,02,01,02,29,35.40
2020,02,01,02,30,30.60
2020,02,01,02,31,27.40
2020,02,01,02,32,32.20
2020,02,01,02,33,37.00
2020,02,01,02,34,27.40
2020,02,01,02,35,24.20
2020,02,01,02,36,25.70
2020,02,01,02,37,37.00
2020,02,01,02,38,33.80
2020,02,01,02,39,27.40
2020,02,01,02,40,29.00
2020,02,01,02,41,37.00
2020,02,01,02,42,25.70
2020,02,01,02,43,32.20
2020,02,01,02,44,32.20
2020,02,01,02,45,29.00
2020,02,01,02,46,40.20
2020,02,01,02,47,29.00
2020,02,01,02,48,27.40
2020,02,01,02,49,38.60
2020,02,01,02,50,35.40
2020,02,01,02,51,24.20
2020,02,01,02,52,27.40
2020,02,01,02,53,25.70
2020,02,01,02,54,24.20
2020,02,01,02,55,22.50
2020,02,01,02,56,20.90
2020,02,01,02,57,20.90
2020,02,01,02,58,24.20
2020,02,01,02,59,17.70
2020,02,01,03,00,22.50
2020,02,01,03,01,29.00
2020,02,01,03,02,27.40
2020,02,01,03,03,22.50
2020,02,01,03,04,17.70
2020,02,01,03,05,17.70
2020,02,01,03,06,17.70
2020,02,01,03,07,12.90
2020,02,01,03,08,12.90
2020,02,01,03,09,12.90
2020,02,01,03,10,14.50
2020,02,01,03,11,9.60
2020,02,01,03,12,8.10
2020,02,01,03,13,8.10
2020,02,01,03,14,8.10
2020,02,01,03,15,11.30
2020,02,01,03,16,9.60
2020,02,01,03,17,8.10
2020,02,01,03,18,6.40
2020,02,01,03,19,8.10
2020,02,01,03,20,4.80
2020,02,01,03,21,4.80
2020,02,01,03,22,6.40
2020,02,01,03,23,4.80
2020,02,01,03,24,4.80
2020,02,01,03,25,4.80
2020,02,01,03,26,4.80
2020,02,01,03,27,6.40
2020,02,01,03,28,6.40
2020,02,01,03,29,6.40
2020,02,01,03,30,8.10
2020,02,01,03,31,8.10
2020,02,01,03,32,9.60
2020,02,01,03,33,9.60
2020,02,01,03,34,4.80
2020,02,01,03,35,8.10
2020,02,01,03,36,6.40
2020,02,01,03,37,6.40
2020,02,01,03,38,11.30
2020,02,01,03,39,9.60
2020,02,01,03,40,8.10
2020,02,01,03,41,8.10
2020,02,01,03,42,8.10
2020,02,01,03,43,9.60
2020,02,01,03,44,6.40
2020,02,01,03,45,11.30
2020,02,01,03,46,16.10
2020,02,01,03,47,24.20
2020,02,01,03,48,14.50
2020,02,01,03,49,20.90
2020,02,01,03,50,17.70
2020,02,01,03,51,9.60
2020,02,01,03,52,8.10
2020,02,01,03,53,11.30
2020,02,01,03,54,9.60
2020,02,01,03,55,16.10
2020,02,01,03,56,38.60
2020,02,01,03,57,17.70
2020,02,01,03,58,20.90
2020,02,01,03,59,22.50
2020,02,01,04,00,20.90
2020,02,01,04,01,11.30
2020,02,01,04,02,14.50
2020,02,01,04,03,11.30
2020,02,01,04,04,8.10
2020,02,01,04,05,9.60
2020,02,01,04,06,20.90
2020,02,01,04,07,11.30
2020,02,01,04,08,6.40
2020,02,01,04,09,20.90
2020,02,01,04,10,14.50
2020,02,01,04,11,14.50
2020,02,01,04,12,19.30
2020,02,01,04,13,16.10
2020,02,01,04,14,11.30
2020,02,01,04,15,14.50
2020,02,01,04,16,12.90
2020,02,01,04,17,16.10
2020,02,01,04,18,14.50
2020,02,01,04,19,25.70
2020,02,01,04,20,16.10
2020,02,01,04,21,12.90
2020,02,01,04,22,16.10
2020,02,01,04,23,19.30
2020,02,01,04,24,20.90
2020,02,01,04,25,8.10
2020,02,01,04,26,8.10
2020,02,01,04,27,24.20
2020,02,01,04,28,19.30
2020,02,01,04,29,20.90
2020,02,01,04,30,17.70
2020,02,01,04,31,19.30
2020,02,01,04,32,35.40
2020,02,01,04,33,24.20
2020,02,01,04,34,22.50
2020,02,01,04,35,27.40
2020,02,01,04,36,19.30
2020,02,01,04,37,19.30
2020,02,01,04,38,19.30
2020,02,01,04,39,19.30
2020,02,01,04,40,24.20
2020,02,01,04,41,16.10
2020,02,01,04,42,22.50
2020,02,01,04,43,24.20
2020,02,01,04,44,20.90
2020,02,01,04,45,19.30
2020,02,01,04,46,20.90
2020,02,01,04,47,30.60
2020,02,01,04,48,24.20
2020,02,01,04,49,20.90
2020,02,01,04,50,24.20
2020,02,01,04,51,25.70
2020,02,01,04,52,19.30
2020,02,01,04,53,19.30
2020,02,01,04,54,22.50
2020,02,01,04,55,19.30
2020,02,01,04,56,25.70
2020,02,01,04,57,20.90
2020,02,01,04,58,11.30
2020,02,01,04,59,11.30
2020,02,01,05,00,12.90
2020,02,01,05,01,16.10
2020,02,01,05,02,17.70
2020,02,01,05,03,16.10
2020,02,01,05,04,9.60
2020,02,01,05,05,14.50
2020,02,01,05,06,12.90
2020,02,01,05,07,14.50
2020,02,01,05,08,12.90
2020,02,01,05,09,11.30
2020,02,01,05,10,20.90
2020,02,01,05,11,20.90
2020,02,01,05,12,17.70
2020,02,01,05,13,17.70
2020,02,01,05,14,22.50
2020,02,01,05,15,17.70
2020,02,01,05,16,22.50
2020,02,01,05,17,11.30
2020,02,01,05,18,11.30
2020,02,01,05,19,11.30
2020,02,01,05,20,11.30
2020,02,01,05,21,11.30
2020,02,01,05,22,11.30
2020,02,01,05,23,11.30
2020,02,01,05,24,12.90
2020,02,01,05,25,25.70
2020,02,01,05,26,24.20
2020,02,01,05,27,16.10
2020,02,01,05,28,14.50
2020,02,01,05,29,19.30
2020,02,01,05,30,12.90
2020,02,01,05,31,14.50
2020,02,01,05,32,14.50
2020,02,01,05,33,14.50
2020,02,01,05,34,19.30
2020,02,01,05,35,19.30
2020,02,01,05,36,16.10
2020,02,01,05,37,27.40
2020,02,01,05,38,17.70
2020,02,01,05,39,11.30
2020,02,01,05,40,14.50
2020,02,01,05,41,14.50
2020,02,01,05,42,12.90
2020,02,01,05,43,9.60
2020,02,01,05,44,9.60
2020,02,01,05,45,14.50
2020,02,01,05,46,12.90
2020,02,01,05,47,16.10
2020,02,01,05,48,17.70
2020,02,01,05,49,22.50
2020,02,01,05,50,20.90
2020,02,01,05,51,16.10
2020,02,01,05,52,24.20
2020,02,01,05,53,22.50
2020,02,01,05,54,14.50
2020,02,01,05,55,19.30
2020,02,01,05,56,19.30
2020,02,01,05,57,19.30
2020,02,01,05,58,16.10
2020,02,01,05,59,16.10
2020,02,01,06,00,16.10
2020,02,01,06,01,14.50
2020,02,01,06,02,16.10
2020,02,01,06,03,16.10
2020,02,01,06,04,19.30
2020,02,01,06,05,16.10
2020,02,01,06,06,16.10
2020,02,01,06,07,17.70
2020,02,01,06,08,16.10
2020,02,01,06,09,12.90
2020,02,01,06,10,22.50
2020,02,01,06,11,16.10
2020,02,01,06,12,14.50
2020,02,01,06,13,9.60
2020,02,01,06,14,11.30
2020,02,01,06,15,17.70
2020,02,01,06,16,12.90
2020,02,01,06,17,9.60
2020,02,01,06,18,12.90
2020,02,01,06,19,16.10
2020,02,01,06,20,6.40
2020,02,01,06,21,6.40
2020,02,01,06,22,8.10
2020,02,01,06,23,14.50
2020,02,01,06,24,12.90
2020,02,01,06,25,8.10
2020,02,01,06,26,3.20
2020,02,01,06,27,3.20
2020,02,01,06,28,6.40
2020,02,01,06,29,8.10
2020,02,01,06,30,3.20
2020,02,01,06,31,9.60
2020,02,01,06,32,9.60
2020,02,01,06,33,9.60
2020,02,01,06,34,14.50
2020,02,01,06,35,11.30
2020,02,01,06,36,8.10
2020,02,01,06,37,11.30
2020,02,01,06,38,9.60
2020,02,01,06,39,3.20
2020,02,01,06,40,3.20
2020,02,01,06,41,8.10
2020,02,01,06,42,19.30
2020,02,01,06,43,17.70
2020,02,01,06,44,14.50
2020,02,01,06,45,14.50
2020,02,01,06,46,9.60
2020,02,01,06,47,14.50
2020,02,01,06,48,12.90
2020,02,01,06,49,9.60
2020,02,01,06,50,9.60
2020,02,01,06,51,8.10
2020,02,01,06,52,11.30
2020,02,01,06,53,6.40
2020,02,01,06,54,9.60
2020,02,01,06,55,9.60
2020,02,01,06,56,9.60
2020,02,01,06,57,9.60
2020,02,01,06,58,9.60
2020,02,01,06,59,9.60
2020,02,01,07,00,9.60
2020,02,01,07,01,9.60
2020,02,01,07,02,12.90
2020,02,01,07,03,14.50
2020,02,01,07,04,11.30
2020,02,01,07,05,11.30
2020,02,01,07,06,9.60
2020,02,01,07,07,9.60
2020,02,01,07,08,3.20
2020,02,01,07,09,3.20
2020,02,01,07,10,1.60
2020,02,01,07,11,3.20
2020,02,01,07,12,3.20
2020,02,01,07,13,1.60
2020,02,01,07,14,3.20
2020,02,01,07,15,8.10
2020,02,01,07,16,6.40
2020,02,01,07,17,6.40
2020,02,01,07,18,3.20
2020,02,01,07,19,6.40
2020,02,01,07,20,11.30
2020,02,01,07,21,9.60
2020,02,01,07,22,8.10
2020,02,01,07,23,3.20
2020,02,01,07,24,6.40
2020,02,01,07,25,6.40
2020,02,01,07,26,3.20
2020,02,01,07,27,3.20
2020,02,01,07,28,6.40
2020,02,01,07,29,8.10
2020,02,01,07,30,3.20
2020,02,01,07,31,6.40
2020,02,01,07,32,3.20
2020,02,01,07,33,6.40
2020,02,01,07,34,6.40
2020,02,01,07,35,1.60
2020,02,01,07,36,1.60
2020,02,01,07,37,6.40
2020,02,01,07,38,14.50
2020,02,01,07,39,17.70
2020,02,01,07,40,6.40
2020,02,01,07,41,6.40
2020,02,01,07,42,3.20
2020,02,01,07,43,3.20
2020,02,01,07,44,3.20
2020,02,01,07,45,3.20
2020,02,01,07,46,3.20
2020,02,01,07,47,6.40
2020,02,01,07,48,3.20
2020,02,01,07,49,1.60
2020,02,01,07,50,6.40
2020,02,01,07,51,11.30
2020,02,01,07,52,9.60
2020,02,01,07,53,12.90
2020,02,01,07,54,3.20
2020,02,01,07,55,3.20
2020,02,01,07,56,1.60
2020,02,01,07,57,6.40
2020,02,01,07,58,11.30
2020,02,01,07,59,9.60
2020,02,01,08,00,11.30
2020,02,01,08,01,6.40
2020,02,01,08,02,16.10
2020,02,01,08,03,12.90
2020,02,01,08,04,12.90
2020,02,01,08,05,11.30
2020,02,01,08,06,9.60
2020,02,01,08,07,9.60
2020,02,01,08,08,6.40
2020,02,01,08,09,6.40
2020,02,01,08,10,12.90
2020,02,01,08,11,11.30
2020,02,01,08,12,9.60
2020,02,01,08,13,6.40
2020,02,01,08,14,11.30
2020,02,01,08,15,9.60
2020,02,01,08,16,4.80
2020,02,01,08,17,8.10
2020,02,01,08,18,9.60
2020,02,01,08,19,3.20
2020,02,01,08,20,1.60
2020,02,01,08,21,12.90
2020,02,01,08,22,9.60
2020,02,01,08,23,11.30
2020,02,01,08,24,14.50
2020,02,01,08,25,12.90
2020,02,01,08,26,6.40
2020,02,01,08,27,6.40
2020,02,01,08,28,6.40
2020,02,01,08,29,6.40
2020,02,01,08,30,6.40
2020,02,01,08,31,6.40
2020,02,01,08,32,6.40
2020,02,01,08,33,6.40
2020,02,01,08,34,6.40
2020,02,01,08,35,6.40
2020,02,01,08,36,4.80
2020,02,01,08,37,4.80
2020,02,01,08,38,4.80
2020,02,01,08,39,9.60
2020,02,01,08,40,3.20
2020,02,01,08,41,3.20
2020,02,01,08,42,3.20
2020,02,01,08,43,3.20
2020,02,01,08,44,3.20
2020,02,01,08,45,1.60
2020,02,01,08,46,3.20
2020,02,01,08,47,4.80
2020,02,01,08,48,4.80
2020,02,01,08,49,4.80
2020,02,01,08,50,3.20
2020,02,01,08,51,6.40
2020,02,01,08,52,3.20
2020,02,01,08,53,1.60
2020,02,01,08,54,1.60
2020,02,01,08,55,1.60
2020,02,01,08,56,3.20
2020,02,01,08,57,1.60
2020,02,01,08,58,4.80
2020,02,01,08,59,4.80
2020,02,01,09,00,6.40
2020,02,01,09,01,8.10
2020,02,01,09,02,11.30
2020,02,01,09,03,11.30
2020,02,01,09,04,17.70
2020,02,01,09,05,16.10
2020,02,01,09,06,11.30
2020,02,01,09,07,12.90
2020,02,01,09,08,11.30
2020,02,01,09,09,11.30
2020,02,01,09,10,9.60
2020,02,01,09,11,8.10
2020,02,01,09,12,6.40
2020,02,01,09,13,8.10
2020,02,01,09,14,6.40
2020,02,01,09,15,4.80
2020,02,01,09,16,9.60
2020,02,01,09,17,8.10
2020,02,01,09,18,11.30
2020,02,01,09,19,9.60
2020,02,01,09,20,8.10
2020,02,01,09,21,8.10
2020,02,01,09,22,6.40
2020,02,01,09,23,3.20
2020,02,01,09,24,3.20
2020,02,01,09,25,3.20
2020,02,01,09,26,4.80
2020,02,01,09,27,4.80
2020,02,01,09,28,4.80
2020,02,01,09,29,3.20
2020,02,01,09,30,3.20
2020,02,01,09,31,3.20
2020,02,01,09,32,1.60
2020,02,01,09,33,1.60
2020,02,01,09,34,3.20
2020,02,01,09,35,4.80
2020,02,01,09,36,4.80
2020,02,01,09,37,8.10
2020,02,01,09,38,8.10
2020,02,01,09,39,6.40
2020,02,01,09,40,6.40
2020,02,01,09,41,8.10
2020,02,01,09,42,8.10
2020,02,01,09,43,6.40
2020,02,01,09,44,6.40
2020,02,01,09,45,3.20
2020,02,01,09,46,3.20
2020,02,01,09,47,3.20
2020,02,01,09,48,4.80
2020,02,01,09,49,4.80
2020,02,01,09,50,6.40
2020,02,01,09,51,6.40
2020,02,01,09,52,4.80
2020,02,01,09,53,8.10
2020,02,01,09,54,9.60
2020,02,01,09,55,6.40
2020,02,01,09,56,4.80
2020,02,01,09,57,1.60
2020,02,01,09,58,6.40
2020,02,01,09,59,4.80
2020,02,01,10,00,4.80
2020,02,01,10,01,4.80
2020,02,01,10,02,4.80
2020,02,01,10,03,4.80
2020,02,01,10,04,3.20
2020,02,01,10,05,3.20
2020,02,01,10,06,4.80
2020,02,01,10,07,1.60
2020,02,01,10,08,1.60
2020,02,01,10,09,1.60
2020,02,01,10,10,1.60
2020,02,01,10,11,6.40
2020,02,01,10,12,8.10
2020,02,01,10,13,6.40
2020,02,01,10,14,9.60
2020,02,01,10,15,11.30
2020,02,01,10,16,12.90
2020,02,01,10,17,12.90
2020,02,01,10,18,14.50
2020,02,01,10,19,14.50
2020,02,01,10,20,12.90
2020,02,01,10,21,12.90
2020,02,01,10,22,16.10
2020,02,01,10,23,8.10
2020,02,01,10,24,9.60
2020,02,01,10,25,9.60
2020,02,01,10,26,9.60
2020,02,01,10,27,9.60
2020,02,01,10,28,14.50
2020,02,01,10,29,16.10
2020,02,01,10,30,8.10
2020,02,01,10,31,3.20
2020,02,01,10,32,4.80
2020,02,01,10,33,1.60
2020,02,01,10,34,9.60
2020,02,01,10,35,8.10
2020,02,01,10,36,6.40
2020,02,01,10,37,17.70
2020,02,01,10,38,14.50
2020,02,01,10,39,12.90
2020,02,01,10,40,19.30
2020,02,01,10,41,12.90
2020,02,01,10,42,19.30
2020,02,01,10,43,16.10
2020,02,01,10,44,16.10
2020,02,01,10,45,22.50
2020,02,01,10,46,16.10
2020,02,01,10,47,24.20
2020,02,01,10,48,24.20
2020,02,01,10,49,17.70
2020,02,01,10,50,25.70
2020,02,01,10,51,30.60
2020,02,01,10,52,25.70
2020,02,01,10,53,24.20
2020,02,01,10,54,17.70
2020,02,01,10,55,12.90
2020,02,01,10,56,8.10
2020,02,01,10,57,9.60
2020,02,01,10,58,11.30
2020,02,01,10,59,14.50
2020,02,01,11,00,14.50
2020,02,01,11,01,14.50
2020,02,01,11,02,12.90
2020,02,01,11,03,14.50
2020,02,01,11,04,14.50
2020,02,01,11,05,12.90
2020,02,01,11,06,8.10
2020,02,01,11,07,11.30
2020,02,01,11,08,14.50
2020,02,01,11,09,11.30
2020,02,01,11,10,11.30
2020,02,01,11,11,9.60
2020,02,01,11,12,9.60
2020,02,01,11,13,11.30
2020,02,01,11,14,19.30
2020,02,01,11,15,19.30
2020,02,01,11,16,11.30
2020,02,01,11,17,9.60
2020,02,01,11,18,8.10
2020,02,01,11,19,16.10
2020,02,01,11,20,14.50
2020,02,01,11,21,12.90
2020,02,01,11,22,14.50
2020,02,01,11,23,14.50
2020,02,01,11,24,12.90
2020,02,01,11,25,14.50
2020,02,01,11,26,14.50
2020,02,01,11,27,16.10
2020,02,01,11,28,11.30
2020,02,01,11,29,14.50
2020,02,01,11,30,14.50
2020,02,01,11,31,11.30
2020,02,01,11,32,9.60
2020,02,01,11,33,9.60
2020,02,01,11,34,16.10
2020,02,01,11,35,16.10
2020,02,01,11,36,12.90
2020,02,01,11,37,12.90
2020,02,01,11,38,14.50
2020,02,01,11,39,16.10
2020,02,01,11,40,11.30
2020,02,01,11,41,9.60
2020,02,01,11,42,6.40
2020,02,01,11,43,6.40
2020,02,01,11,44,11.30
2020,02,01,11,45,8.10
2020,02,01,11,46,6.40
2020,02,01,11,47,8.10
2020,02,01,11,48,8.10
2020,02,01,11,49,11.30
2020,02,01,11,50,9.60
2020,02,01,11,51,9.60
2020,02,01,11,52,11.30
2020,02,01,11,53,6.40
2020,02,01,11,54,3.20
2020,02,01,11,55,9.60
2020,02,01,11,56,4.80
2020,02,01,11,57,6.40
2020,02,01,11,58,9.60
2020,02,01,11,59,8.10
2020,02,01,12,00,8.10
2020,02,01,12,01,8.10
2020,02,01,12,02,11.30
2020,02,01,12,03,8.10
2020,02,01,12,04,11.30
2020,02,01,12,05,8.10
2020,02,01,12,06,8.10
2020,02,01,12,07,4.80
2020,02,01,12,09,6.40
2020,02,01,12,12,9.60
2020,02,01,12,13,6.40
2020,02,01,12,14,8.10
2020,02,01,12,15,9.60
2020,02,01,12,16,9.60
2020,02,01,12,17,9.60
2020,02,01,12,18,8.10
2020,02,01,12,19,6.40
2020,02,01,12,20,1.60
2020,02,01,12,22,8.10
2020,02,01,12,23,8.10
2020,02,01,12,24,8.10
2020,02,01,12,25,11.30
2020,02,01,12,26,9.60
2020,02,01,12,27,8.10
2020,02,01,12,28,9.60
2020,02,01,12,29,9.60
2020,02,01,12,30,11.30
2020,02,01,12,31,6.40
2020,02,01,12,32,4.80
2020,02,01,12,33,8.10
2020,02,01,12,34,4.80
2020,02,01,12,35,6.40
2020,02,01,12,36,9.60
2020,02,01,12,37,8.10
2020,02,01,12,38,9.60
2020,02,01,12,39,8.10
2020,02,01,12,40,12.90
2020,02,01,12,41,9.60
2020,02,01,12,42,8.10
2020,02,01,12,43,8.10
2020,02,01,12,44,24.20
2020,02,01,12,45,25.70
2020,02,01,12,46,17.70
2020,02,01,12,47,12.90
2020,02,01,12,48,12.90
2020,02,01,12,49,17.70
2020,02,01,12,50,19.30
2020,02,01,12,51,12.90
2020,02,01,12,52,14.50
2020,02,01,12,53,17.70
2020,02,01,12,54,19.30
2020,02,01,12,55,14.50
2020,02,01,12,56,11.30
2020,02,01,12,57,14.50
2020,02,01,12,58,12.90
2020,02,01,12,59,9.60
2020,02,01,13,00,9.60
2020,02,01,13,01,11.30
2020,02,01,13,02,11.30
2020,02,01,13,03,11.30
2020,02,01,13,04,11.30
2020,02,01,13,05,11.30
2020,02,01,13,06,11.30
2020,02,01,13,07,12.90
2020,02,01,13,08,12.90
2020,02,01,13,09,11.30
2020,02,01,13,10,8.10
2020,02,01,13,11,12.90
2020,02,01,13,12,12.90
2020,02,01,13,13,9.60
2020,02,01,13,14,11.30
2020,02,01,13,15,11.30
2020,02,01,13,16,9.60
2020,02,01,13,17,9.60
2020,02,01,13,18,14.50
2020,02,01,13,19,16.10
2020,02,01,13,20,14.50
2020,02,01,13,21,16.10
2020,02,01,13,22,11.30
2020,02,01,13,23,19.30
2020,02,01,13,24,16.10
2020,02,01,13,25,12.90
2020,02,01,13,26,19.30
2020,02,01,13,27,16.10
2020,02,01,13,28,9.60
2020,02,01,13,29,14.50
2020,02,01,13,30,17.70
2020,02,01,13,31,16.10
2020,02,01,13,32,20.90
2020,02,01,13,33,22.50
2020,02,01,13,34,20.90
2020,02,01,13,35,20.90
2020,02,01,13,36,12.90
2020,02,01,13,37,9.60
2020,02,01,13,38,6.40
2020,02,01,13,39,14.50
2020,02,01,13,40,8.10
2020,02,01,13,41,9.60
2020,02,01,13,42,12.90
2020,02,01,13,43,9.60
2020,02,01,13,44,12.90
2020,02,01,13,45,11.30
2020,02,01,13,46,12.90
2020,02,01,13,47,8.10
2020,02,01,13,48,11.30
2020,02,01,13,49,12.90
2020,02,01,13,50,12.90
2020,02,01,13,51,20.90
2020,02,01,13,52,14.50
2020,02,01,13,53,14.50
2020,02,01,13,54,14.50
2020,02,01,13,55,9.60
2020,02,01,13,56,11.30
2020,02,01,13,57,14.50
2020,02,01,13,58,12.90
2020,02,01,13,59,11.30
2020,02,01,14,00,8.10
2020,02,01,14,01,8.10
2020,02,01,14,02,9.60
2020,02,01,14,03,4.80
2020,02,01,14,04,9.60
2020,02,01,14,05,9.60
2020,02,01,14,06,12.90
2020,02,01,14,07,20.90
2020,02,01,14,08,20.90
2020,02,01,14,09,16.10
2020,02,01,14,10,20.90
2020,02,01,14,11,16.10
2020,02,01,14,12,17.70
2020,02,01,14,13,11.30
2020,02,01,14,14,14.50
2020,02,01,14,15,14.50
2020,02,01,14,16,20.90
2020,02,01,14,17,20.90
2020,02,01,14,18,16.10
2020,02,01,14,19,17.70
2020,02,01,14,20,22.50
2020,02,01,14,21,19.30
2020,02,01,14,22,20.90
2020,02,01,14,23,17.70
2020,02,01,14,24,12.90
2020,02,01,14,25,17.70
2020,02,01,14,26,9.60
2020,02,01,14,27,12.90
2020,02,01,14,28,11.30
2020,02,01,14,29,14.50
2020,02,01,14,30,12.90
2020,02,01,14,31,4.80
2020,02,01,14,32,8.10
2020,02,01,14,33,11.30
2020,02,01,14,34,11.30
2020,02,01,14,35,14.50
2020,02,01,14,36,22.50
2020,02,01,14,37,11.30
2020,02,01,14,38,12.90
2020,02,01,14,39,17.70
2020,02,01,14,40,11.30
2020,02,01,14,41,14.50
2020,02,01,14,42,12.90
2020,02,01,14,43,16.10
2020,02,01,14,44,12.90
2020,02,01,14,45,12.90
2020,02,01,14,46,14.50
2020,02,01,14,47,11.30
2020,02,01,14,48,11.30
2020,02,01,14,49,12.90
2020,02,01,14,50,17.70
2020,02,01,14,51,12.90
2020,02,01,14,52,14.50
2020,02,01,14,53,12.90
2020,02,01,14,54,9.60
2020,02,01,14,55,11.30
2020,02,01,14,56,6.40
2020,02,01,14,57,17.70
2020,02,01,14,58,17.70
2020,02,01,14,59,8.10
2020,02,01,15,00,11.30
2020,02,01,15,01,14.50
2020,02,01,15,02,19.30
2020,02,01,15,03,9.60
2020,02,01,15,04,11.30
2020,02,01,15,05,14.50
2020,02,01,15,06,19.30
2020,02,01,15,07,17.70
2020,02,01,15,08,16.10
2020,02,01,15,09,12.90
2020,02,01,15,10,16.10
2020,02,01,15,11,17.70
2020,02,01,15,12,14.50
2020,02,01,15,13,12.90
2020,02,01,15,14,16.10
2020,02,01,15,15,19.30
2020,02,01,15,16,20.90
2020,02,01,15,17,20.90
2020,02,01,15,18,30.60
2020,02,01,15,19,19.30
2020,02,01,15,20,17.70
2020,02,01,15,21,16.10
2020,02,01,15,22,12.90
2020,02,01,15,23,17.70
2020,02,01,15,24,19.30
2020,02,01,15,25,9.60
2020,02,01,15,26,19.30
2020,02,01,15,27,19.30
2020,02,01,15,28,25.70
2020,02,01,15,29,27.40
2020,02,01,15,30,14.50
2020,02,01,15,31,16.10
2020,02,01,15,32,17.70
2020,02,01,15,33,25.70
2020,02,01,15,34,22.50
2020,02,01,15,35,22.50
2020,02,01,15,36,17.70
2020,02,01,15,37,14.50
2020,02,01,15,38,16.10
2020,02,01,15,39,11.30
2020,02,01,15,40,12.90
2020,02,01,15,41,8.10
2020,02,01,15,42,9.60
2020,02,01,15,43,12.90
2020,02,01,15,44,14.50
2020,02,01,15,45,11.30
2020,02,01,15,46,12.90
2020,02,01,15,47,12.90
2020,02,01,15,48,16.10
2020,02,01,15,49,19.30
2020,02,01,15,50,16.10
2020,02,01,15,51,20.90
2020,02,01,15,52,20.90
2020,02,01,15,53,17.70
2020,02,01,15,54,20.90
2020,02,01,15,55,14.50
2020,02,01,15,56,16.10
2020,02,01,15,57,17.70
2020,02,01,15,58,14.50
2020,02,01,15,59,14.50
2020,02,01,16,00,11.30
2020,02,01,16,01,16.10
2020,02,01,16,02,19.30
2020,02,01,16,03,17.70
2020,02,01,16,04,19.30
2020,02,01,16,05,25.70
2020,02,01,16,06,22.50
2020,02,01,16,07,14.50
2020,02,01,16,08,17.70
2020,02,01,16,09,12.90
2020,02,01,16,10,12.90
2020,02,01,16,11,16.10
2020,02,01,16,12,12.90
2020,02,01,16,13,12.90
2020,02,01,16,14,9.60
2020,02,01,16,15,16.10
2020,02,01,16,16,12.90
2020,02,01,16,17,9.60
2020,02,01,16,18,19.30
2020,02,01,16,19,11.30
2020,02,01,16,20,9.60
2020,02,01,16,21,6.40
2020,02,01,16,22,11.30
2020,02,01,16,23,14.50
2020,02,01,16,24,11.30
2020,02,01,16,25,11.30
2020,02,01,16,26,8.10
2020,02,01,16,27,9.60
2020,02,01,16,28,6.40
2020,02,01,16,29,12.90
2020,02,01,16,30,11.30
2020,02,01,16,31,8.10
2020,02,01,16,32,11.30
2020,02,01,16,33,14.50
2020,02,01,16,34,11.30
2020,02,01,16,35,12.90
2020,02,01,16,36,14.50
2020,02,01,16,37,16.10
2020,02,01,16,38,11.30
2020,02,01,16,39,6.40
2020,02,01,16,40,6.40
2020,02,01,16,41,6.40
2020,02,01,16,42,6.40
2020,02,01,16,43,8.10
2020,02,01,16,44,11.30
2020,02,01,16,45,9.60
2020,02,01,16,46,6.40
2020,02,01,16,47,8.10
2020,02,01,16,48,8.10
2020,02,01,16,49,9.60
2020,02,01,16,50,9.60
2020,02,01,16,51,12.90
2020,02,01,16,52,9.60
2020,02,01,16,53,9.60
2020,02,01,16,54,9.60
2020,02,01,16,55,8.10
2020,02,01,16,56,8.10
2020,02,01,16,57,11.30
2020,02,01,16,58,11.30
2020,02,01,16,59,9.60
2020,02,01,17,00,8.10
2020,02,01,17,01,11.30
2020,02,01,17,02,8.10
2020,02,01,17,03,8.10
2020,02,01,17,04,8.10
2020,02,01,17,05,8.10
2020,02,01,17,06,11.30
2020,02,01,17,07,9.60
2020,02,01,17,08,8.10
2020,02,01,17,09,6.40
2020,02,01,17,10,9.60
2020,02,01,17,11,8.10
2020,02,01,17,12,6.40
2020,02,01,17,13,8.10
2020,02,01,17,14,9.60
2020,02,01,17,15,8.10
2020,02,01,17,16,6.40
2020,02,01,17,17,9.60
2020,02,01,17,18,9.60
2020,02,01,17,19,11.30
2020,02,01,17,20,8.10
2020,02,01,17,21,11.30
2020,02,01,17,22,11.30
2020,02,01,17,23,11.30
2020,02,01,17,24,6.40
2020,02,01,17,25,8.10
2020,02,01,17,26,11.30
2020,02,01,17,27,8.10
2020,02,01,17,28,8.10
2020,02,01,17,29,6.40
2020,02,01,17,30,8.10
2020,02,01,17,31,6.40
2020,02,01,17,32,4.80
2020,02,01,17,33,6.40
2020,02,01,17,34,9.60
2020,02,01,17,35,8.10
2020,02,01,17,36,8.10
2020,02,01,17,37,8.10
2020,02,01,17,38,9.60
2020,02,01,17,39,8.10
2020,02,01,17,40,6.40